Location: Newark
(34.1333°N, 7.9667°W)
Time: 04:47:11
(UTC+00:00)

AO-27 - Visible Passes

Search period start: 07 June 2023 00:00
Search period end: 17 June 2023 00:00
Orbit: 784 x 797 km, 98.8° (Epoch: 06 June)

Date Brightness Start Highest point End Pass type
(mag) Time Alt. Az. Time Alt. Az. Time Alt. Az.
07 Jun 7.8 20:05:58 10° SSE 20:11:02 58° ENE 20:16:07 10° N visible
07 Jun 10.2 21:48:17 10° WSW 21:50:47 13° W 21:53:18 10° WNW visible
08 Jun 9.4 21:16:51 10° SSW 21:21:14 27° W 21:25:37 10° NW visible
09 Jun 8.3 20:46:43 10° S 20:51:47 55° W 20:56:52 10° NNW visible
10 Jun 7.7 20:17:17 10° SSE 20:22:27 75° ENE 20:27:37 10° N visible
11 Jun 9.8 21:28:53 10° SW 21:32:45 21° W 21:36:38 10° NW visible
12 Jun 8.8 20:58:23 10° S 21:03:16 42° W 21:08:10 10° NNW visible
13 Jun 7.7 20:28:42 10° SSE 20:33:53 85° WSW 20:39:05 10° NNW visible
14 Jun 10.1 21:41:08 10° SW 21:44:17 16° W 21:47:27 10° NW visible
15 Jun 9.2 21:10:09 10° SSW 21:14:45 32° W 21:19:22 10° NW visible
16 Jun 8.0 20:40:12 10° S 20:45:20 65° WSW 20:50:29 10° NNW visible
